Regional Weather Roundup
Issued by NWS Jackson, KY

Home | Current Version | Previous Version | Text Only | Print | Product List | Glossary Off
Versions: 1 2 3 4 5 6 7 8 9 10 11 12 13 14 15 16 17 18 19 20 21 22 23 24 25 26 27

000
ASUS43 KJKL 231210
RWRJKL

EAST KENTUCKY HOURLY WEATHER ROUNDUP
NATIONAL WEATHER SERVICE JACKSON KY
800 AM EDT SUN JUL 23 2017

NOTE: "FAIR" INDICATES FEW OR NO CLOUDS BELOW 12,000 FEET WITH
NO SIGNIFICANT WEATHER AND/OR OBSTRUCTIONS TO VISIBILITY.

* THESE REPORTS ARE NOT UNDER NWS QUALITY CONTROL AND MAY NOT
  REPORT WEATHER SUCH AS PRECIPITATION AND FOG.

KYZ079-080-083-085-087-088-110-112-115-119-120-231300
...EASTERN KENTUCKY...

CITY           SKY/WX    TMP DP  RH WIND       PRES   REMARKS
JACKSON        CLOUDY    68  68 100 S3        29.93S FOG
6HR MIN TEMP:  68; 6HR MAX TEMP:  82; 6HR PCP:  0.90;

LONDON         CLOUDY    75  67  76 CALM      29.94F
6HR MIN TEMP:  75; 6HR MAX TEMP:  79; 6HR PCP: TRACE;

SOMERSET*      CLOUDY    73  64  73 CALM      29.95S
MONTICELLO*    PTSUNNY   76  75  97 N10       29.95R
6HR MIN TEMP:  73; 6HR MAX TEMP:  79; 6HR PCP: TRACE;

WILLIAMSBURG*  CLOUDY    73  73 100 CALM      29.94F
MIDDLESBORO*   CLOUDY    74  73  99 CALM      29.95F
6HR MIN TEMP:  73; 6HR MAX TEMP:  75;

HARLAN APT*    CLOUDY    72  68  88 N5        29.99R VSB 1/2
PIKE CO APT*   RAIN      67  67 100 SE3       29.97F VSB 3/4
BIG SANDY APT* HVY RAIN  69  69 100 CALM      29.96F
6HR MIN TEMP:  68; 6HR MAX TEMP:  80;

MOREHEAD APT*  CLOUDY    70  68  94 VRB5G13   29.90R
$$

KYZ035-036-041-042-044-050-067-078-099-231300
...CENTRAL KENTUCKY...

CITY           SKY/WX    TMP DP  RH WIND       PRES   REMARKS
MT STERLING*   LGT RAIN  72  72 100 SW7       29.89F
DANVILLE*      CLOUDY    70  68  94 CALM      29.93S
LEXINGTON      LGT RAIN  71  68  90 S10       29.87F
6HR MIN TEMP:  71; 6HR MAX TEMP:  83; 6HR PCP:  0.56;

FRANKFORT      LGT RAIN  72  65  78 SW15      29.85F
6HR MIN TEMP:  71; 6HR MAX TEMP:  82; 6HR PCP:  0.85;

LOUISVILLE     TSTM      73  69  87 W8        29.87R
6HR MIN TEMP:  72; 6HR MAX TEMP:  75; 6HR PCP:  0.78;

LEBANON*         N/A     72  68  88 CALM      29.92R
GLASGOW*       CLOUDY    76  67  72 CALM      29.91S
BOWLING GREEN  CLOUDY    79  75  87 SE5       29.91R
6HR MIN TEMP:  78; 6HR MAX TEMP:  83;

$$

KYZ091>093-OHZ055-061-077-WVZ005-015-034-035-042-231300
...SOUTHERN OHIO/WEST VIRGINIA...

CITY           SKY/WX    TMP DP  RH WIND       PRES   REMARKS
COVINGTON      CLOUDY    72  71  97 SW9       29.84S
COLUMBUS       CLOUDY    74  73  97 S9        29.83R
DAYTON         CLOUDY    73  71  93 SW8       29.85R
WILMINGTON     CLOUDY    72  72 100 W10       29.85R
HUNTINGTON     LGT RAIN  71  68  90 S13       29.89S
CHARLESTON     LGT RAIN  71  67  87 SW12      29.91S
PINEVILLE*     HVY RAIN  71  69  95 MISG      30.06R
BECKLEY        LGT RAIN  67  65  93 SW7       30.01R
BLUEFIELD      CLOUDY    67  66  97 W6        30.03R
LOGAN CO APT*  TSTM      68  68 100 CALM      30.00R
$$

VAZ002-007-008-TNZ017-027-036-066-071-231300
...SOUTHWEST VIRGINIA/EAST TENNESSEE...

CITY           SKY/WX    TMP DP  RH WIND       PRES   REMARKS
WISE*          CLOUDY    68  68 100 N9        30.07R
JONESVILLE*      N/A     73  72  94 CALM      29.98F
ABINGDON*      CLOUDY    73  72  95 CALM      30.01S
BRISTOL        CLOUDY    75  71  87 CALM      29.98R
MORRISTOWN*    MOSUNNY   79  73  83 SW7       29.96S
SEVIERVILLE*   SUNNY     81  70  69 CALM      29.95S
KNOXVILLE      MOSUNNY   78  73  84 SW7       29.96R
LAFOLLETTE*    MOSUNNY   77  75  94 CALM      29.98S
OAK RIDGE      PTSUNNY   79  74  84 SW3       29.96R
CROSSVILLE     CLOUDY    74  70  87 CALM      30.01R
NASHVILLE      MOSUNNY   80  71  74 CALM      29.91R
$$

...KEY TO REMARKS...
VSB - VISIBILITY IN MILES
WCI - WIND CHILL INDEX
HX  - HEAT INDEX

$$




USA.gov is the U.S. government's official web portal to all federal, state and local government web resources and services.